Temp
24 24 25 25 25 25 25 25 25 25 25 25 24 24 24 24 24 24 24 24 25 24
24 24 24 25 25 25 25 25 25 25 25 24 25 25 25 24 24 24 24 24 24 24
24 24 24 24 25 25 25 25 25 25 25 24 25 24 24 24 24 24 24 24 24 24
24 23 23 24 24 24 25 25 25 25 25 24 25 24 25 24 24 24 24 24 24 24
24 23 23 23 23 24 24 25 25 24 24 24 24 24 24 24 24 24 24 24 24 24
23 23 23 23 23 23 24 24 24 24 24 24 24 24 24 24 24 24 24 23 23 24
23 23 23 23 23 23 23 23 23 24 24 24 24 23 23 23 23 23 23 23 23 23
22 22 22 23 22 22 22 23 23 23 23 23 23 23 23 22 22 22 22 23 23 23
21 22 21 21 21 22 22 22 22 22 22 22 21 21 22 21 21 21 21 22 22 22
20 20 21 21 21 21 20 20 21 20 19 19 20 20 20 20 20 20 20 20 21 21
19 19 19 19 19 18 18 18 19 19 18 19 20 20 20 19 19 20 19 20 20 20
19 19 19 18 18 18 18 18 18 18 18 19 19 19 19 19 19 19 19 19 19 19
18 18 19 18 18 18 18 17 17 16 17 17 18 18 18 18 18 18 18 18 18 18
18 18 18 17 17 17 17 16 15 15 15 15 16 17 17 17 17 17 16 16 16 16
Height
825 827 827 829 831 832 834 835 837 838 839 841 842 842 842 842 842 843 844 843 842 841
822 824 826 827 829 830 832 834 835 836 838 839 840 839 839 841 841 842 843 843 842 841
818 821 824 826 827 829 831 832 833 834 834 835 836 837 838 839 841 841 842 842 841 841
815 819 822 823 826 828 829 830 831 832 832 833 835 836 838 838 839 840 840 840 840 840
811 815 819 821 823 825 826 827 829 830 831 832 834 835 837 837 838 838 838 838 838 838
806 810 814 818 821 823 824 825 827 828 829 831 832 834 835 835 835 836 835 835 835 836
802 804 808 812 816 819 821 823 824 826 828 830 831 832 832 832 832 833 833 834 835 834
797 800 804 807 811 815 817 819 821 823 825 827 828 829 828 829 829 830 830 830 830 831
797 798 800 802 806 810 813 815 817 820 821 823 825 826 826 826 826 826 827 827 828 828
794 797 797 800 802 805 808 811 813 816 819 820 822 823 825 825 825 825 825 825 827 827
793 796 798 800 801 803 807 809 811 814 818 820 821 822 823 824 825 825 826 826 827 825
794 795 798 800 801 804 807 810 812 814 815 818 819 819 820 822 823 826 827 826 825 825
793 795 796 798 801 805 807 810 813 815 817 817 817 817 817 819 823 824 824 824 824 825
791 792 794 797 801 804 807 810 814 815 818 818 819 818 819 820 823 823 823 825 826 826
Wind_Speed
19 15 16 12 8 10 15 12 9 8 8 7 6 5 2 3 4 4 2 3 4 2
20 18 16 13 10 8 11 11 11 10 12 11 8 6 6 5 4 5 3 2 2 4
23 21 19 16 14 13 12 12 12 11 9 10 9 10 10 13 8 6 5 5 6 5
25 23 20 19 16 15 15 15 12 12 11 10 10 10 10 10 10 10 9 8 8 7
24 23 22 20 19 16 15 13 11 12 11 11 12 11 11 9 11 12 12 10 9 9
25 22 22 22 21 18 16 14 12 13 13 11 11 13 12 12 12 13 12 10 9 10
24 22 21 20 21 20 20 18 16 14 13 13 14 13 13 13 14 15 15 14 13 11
19 19 18 16 18 19 19 19 19 19 17 15 14 14 15 14 14 15 15 14 13 10
12 16 12 11 14 16 18 18 17 17 16 14 12 12 13 12 10 11 12 13 11 10
9 7 5 3 4 9 12 15 14 13 12 10 6 5 4 3 6 5 4 5 8 9
12 10 9 7 7 8 7 10 11 11 10 7 4 2 0 2 4 3 1 1 4 5
14 13 12 11 9 10 12 13 11 9 7 4 4 5 4 2 3 2 1 2 2 1
14 15 14 14 16 13 12 13 12 10 7 5 4 5 5 6 8 7 4 2 2 1
10 10 11 12 16 16 15 15 13 11 8 4 2 2 6 7 7 6 5 3 3 3
Wind_Direction
224 223 222 226 254 250 233 251 255 264 258 255 248 259 260 290 318 323 303 345 340 326
231 229 224 225 246 247 231 238 261 261 258 249 244 259 259 268 286 295 282 297 334 354
225 229 231 233 236 234 235 249 249 260 260 244 244 265 276 262 246 276 295 302 287 294
225 227 231 237 239 238 233 237 245 261 263 248 242 249 270 266 249 256 274 293 282 282
225 228 230 239 241 236 235 235 239 249 247 249 236 251 255 269 260 256 266 272 280 283
220 221 229 235 234 232 234 238 247 246 250 251 241 251 262 264 265 265 270 273 273 276
219 220 226 231 237 241 241 243 247 242 242 249 254 261 263 264 266 266 266 266 265 274
211 216 222 230 236 240 246 248 251 250 249 245 249 255 261 266 265 265 268 267 258 259
210 211 213 222 232 239 242 242 240 238 236 230 236 250 266 273 271 268 273 258 233 247
211 194 157 192 225 239 234 229 226 226 217 212 220 241 234 282 282 282 297 214 223 236
198 177 158 126 109 125 159 158 147 136 133 132 125 153 157 298 310 324 298 235 223 220
206 197 189 181 146 138 143 147 147 153 172 194 216 236 259 277 311 308 341 14 349 323
199 199 190 188 182 169 160 153 152 146 152 178 196 212 224 242 241 238 244 281 297 249
177 169 161 171 179 170 164 149 136 123 115 116 132 179 199 196 223 211 169 133 86 80